Wind_Speed
3 4 6 5 4 3 3 2 5 5 1 4 2 5 8 5 4 8 10 11 12 13 13 17 18 17 18 17 17 18 19 19 17 13 12 8 11 15 20 22 26 26 25 22
1 6 8 5 1 4 5 4 3 6 4 4 5 7 7 5 4 6 8 11 13 15 15 18 20 20 19 20 20 19 18 19 17 14 13 11 14 15 17 19 24 27 27 25
3 6 9 2 1 1 2 2 2 5 4 3 4 3 8 7 4 3 5 7 10 13 17 18 22 23 22 21 20 20 19 19 18 16 14 14 15 17 19 20 24 23 25 27
2 5 8 9 7 5 2 3 5 6 6 10 3 4 5 11 7 2 6 9 11 12 13 15 20 25 24 23 21 20 19 19 18 17 15 14 15 17 19 20 21 22 25 26
3 5 10 8 6 4 3 7 3 4 5 4 1 3 2 3 6 2 9 12 14 13 13 15 19 24 24 24 22 21 21 20 20 19 16 16 16 17 19 20 23 22 23 26
3 2 3 5 5 2 8 3 2 1 1 3 2 4 2 0 1 4 9 13 14 15 15 14 20 24 25 24 23 22 21 22 20 20 18 18 19 20 21 20 23 24 24 24
4 3 2 3 4 3 8 5 3 2 1 2 1 6 3 2 1 5 11 14 14 14 16 16 19 24 27 26 25 23 23 25 22 21 22 22 21 21 23 23 23 24 25 26
5 2 4 5 3 4 3 3 1 3 3 6 4 4 2 0 2 6 10 12 16 17 17 16 18 24 28 26 26 23 24 27 25 24 25 25 24 21 22 22 23 24 25 27
3 1 2 1 2 2 3 2 2 2 0 3 2 2 5 2 3 11 16 16 17 17 16 17 20 25 28 26 25 24 25 26 28 29 27 28 25 25 23 24 24 24 24 27
2 3 0 3 2 7 3 7 0 3 3 4 3 7 5 4 8 14 17 18 17 17 17 16 18 25 27 25 25 25 26 26 28 31 28 26 28 29 29 25 25 25 25 25
3 2 2 3 2 3 3 2 3 1 1 2 4 4 3 3 10 13 17 17 19 19 17 17 19 26 27 26 27 28 30 28 33 32 31 30 29 30 30 28 27 26 27 26
2 1 3 2 1 3 1 1 1 1 0 3 2 7 1 5 9 12 16 17 19 17 17 17 20 27 27 28 29 28 29 29 31 33 33 34 33 33 31 29 29 25 27 27
4 1 3 4 3 4 4 4 1 2 1 8 3 5 2 5 13 14 16 17 18 18 18 17 18 20 27 29 28 30 26 32 33 32 31 34 35 34 33 30 29 27 25 24
5 3 4 4 3 1 6 6 6 6 5 6 9 16 17 15 14 16 17 18 18 18 17 17 18 17 27 28 28 28 30 32 35 32 31 32 34 33 32 30 28 27 22 23
3 4 5 8 9 8 10 12 10 11 12 7 13 11 16 15 12 14 15 17 18 19 18 17 19 19 26 28 28 28 32 33 33 32 31 33 37 36 31 28 24 20 19 21
1 2 3 5 6 8 10 13 9 8 9 14 15 15 11 11 12 15 17 17 18 19 17 18 19 20 23 28 28 31 32 34 34 32 31 33 31 20 20 15 12 13 19 24
4 3 3 4 3 6 11 7 10 5 6 8 10 14 16 15 14 15 16 17 16 18 17 18 19 18 25 28 31 30 33 34 31 29 29 26 20 9 17 19 23 23 25 29
5 4 3 4 3 6 2 2 4 6 9 9 12 14 12 12 12 14 16 13 16 16 16 17 18 24 26 28 28 31 32 30 28 26 25 21 14 11 18 25 25 24 30 30
12 9 4 4 5 7 10 1 2 3 7 12 6 10 11 14 11 14 13 5 15 11 12 18 23 25 27 26 29 29 28 26 23 23 21 16 12 14 16 23 24 25 32 33
7 11 6 3 4 4 2 3 4 4 9 7 8 10 13 14 13 14 15 14 11 11 14 19 22 25 24 27 29 27 24 22 21 21 19 15 17 19 19 22 25 28 34 35
5 5 12 8 5 5 1 6 2 6 5 11 9 12 14 11 10 17 16 12 9 11 17 20 21 22 24 26 27 20 21 21 21 19 18 19 22 24 24 24 27 31 36 39
5 7 4 5 5 6 4 3 3 7 8 9 12 13 13 15 16 16 15 10 10 13 19 21 21 22 23 24 23 19 19 23 19 19 22 25 26 27 29 28 27 29 38 40
4 3 1 5 1 3 2 4 3 5 10 11 10 13 11 13 14 15 13 9 9 14 17 19 20 21 21 22 21 18 20 21 18 21 23 27 31 32 31 29 27 28 31 36
2 2 3 2 2 4 4 2 0 5 9 10 9 10 11 13 15 15 10 8 8 14 16 18 19 19 19 21 20 19 19 19 22 22 21 24 31 33 33 30 27 26 29 29
2 4 3 5 11 11 7 5 7 12 11 12 9 8 11 12 15 12 8 7 9 13 14 16 17 17 18 19 19 19 17 17 20 22 23 26 29 34 38 37 29 31 28 27
6 8 6 7 5 5 7 10 15 15 15 13 7 9 11 12 11 10 6 6 9 12 13 15 16 15 17 17 18 18 16 18 18 21 24 27 30 35 36 37 36 33 32 27
Wind_Direction
35 59 11 345 294 266 205 235 262 291 223 274 257 219 184 146 87 55 37 26 18 8 351 352 349 347 346 347 343 342 340 337 332 324 316 295 275 266 256 252 245 245 243 240
142 23 341 279 35 185 202 232 240 284 276 283 311 283 186 176 90 43 25 15 3 356 355 353 348 346 344 341 340 336 334 334 329 317 303 287 279 274 267 260 253 245 240 237
64 2 338 263 121 200 190 255 284 290 312 239 300 232 194 187 179 63 25 2 356 353 347 346 347 345 340 336 336 332 330 328 322 317 311 301 290 272 269 264 258 253 246 242
72 14 28 57 61 357 274 359 275 281 306 316 351 303 224 207 217 247 360 1 358 353 350 344 344 340 335 329 327 328 326 326 323 316 308 302 294 284 271 272 270 260 252 245
25 22 28 39 348 331 347 323 316 322 286 288 168 257 104 166 226 321 358 357 356 353 346 344 341 337 329 328 325 325 325 322 323 314 305 297 292 285 283 273 265 263 257 247
27 301 32 346 325 12 312 262 294 109 206 238 86 332 36 154 113 344 349 345 343 342 338 338 336 335 332 329 327 323 324 320 321 314 300 292 287 287 285 280 269 259 255 248
336 28 341 343 336 121 6 357 326 258 268 347 111 295 331 284 186 356 330 330 335 336 333 334 336 336 334 330 329 324 324 321 320 313 302 297 289 282 279 276 270 259 251 250
21 152 19 357 12 335 18 4 97 295 316 315 298 229 112 322 196 330 325 332 330 336 337 328 330 331 332 327 328 325 322 318 319 315 302 300 290 285 277 276 268 261 255 249
346 268 297 281 356 281 115 72 57 114 88 268 297 255 262 192 256 334 341 332 330 332 332 326 327 330 329 325 323 320 320 311 313 312 305 297 293 288 280 277 272 264 255 251
143 281 146 324 186 65 51 139 113 44 336 297 285 300 264 351 344 340 335 331 329 330 330 327 327 331 329 325 321 319 317 313 313 308 303 298 293 292 287 279 268 261 254 246
146 241 152 245 200 175 169 131 79 135 194 298 307 298 207 252 346 330 327 333 332 328 332 328 329 331 330 326 326 323 319 315 315 313 307 302 296 291 288 280 268 262 258 244
95 169 274 300 276 276 234 158 100 203 181 228 285 275 240 244 323 329 331 330 329 323 328 329 331 334 332 329 325 320 314 317 313 309 307 303 299 294 285 279 272 262 259 247
177 200 286 162 158 142 220 189 173 109 177 242 223 267 231 290 322 333 326 324 329 331 329 329 331 333 331 327 320 316 315 315 311 309 305 300 296 290 283 274 271 265 260 243
150 176 220 208 310 302 262 256 245 250 250 256 239 275 300 325 324 327 327 327 328 326 326 327 329 330 329 323 320 319 320 315 311 310 304 298 293 285 280 273 270 266 251 227
217 240 205 244 251 245 258 272 281 233 241 240 288 285 307 315 314 316 316 320 324 325 327 329 331 329 325 322 322 324 318 315 313 309 305 305 299 290 277 266 262 255 220 214
198 245 220 270 233 213 259 274 247 234 249 246 271 285 326 304 304 318 322 322 321 325 326 330 330 327 323 323 324 323 319 317 316 312 314 310 306 310 302 267 225 169 147 142
193 206 220 261 199 270 274 259 201 229 249 272 288 312 314 309 314 318 316 316 317 324 326 327 331 326 323 325 327 322 318 316 317 321 317 316 328 357 54 85 107 109 107 114
177 199 224 274 264 251 84 194 224 247 277 275 283 295 317 309 307 305 303 312 316 328 325 328 328 322 327 326 324 321 321 322 328 327 328 330 2 52 82 92 88 92 96 97
221 205 230 247 225 304 276 132 217 237 287 310 299 314 313 319 312 321 349 305 319 327 325 328 329 329 329 329 327 324 323 332 335 337 335 351 36 64 83 93 97 97 99 97
158 212 214 195 241 253 66 124 341 172 287 23 324 304 325 330 328 337 337 322 327 336 334 336 334 334 338 333 330 328 334 338 342 343 353 33 62 70 75 90 95 99 100 99
138 179 216 225 258 284 26 336 210 250 345 333 328 307 313 316 309 305 318 327 340 338 338 344 342 340 339 338 337 341 342 348 352 6 28 53 63 70 79 86 96 103 102 100
196 178 191 200 221 243 10 113 297 339 308 310 315 312 319 313 312 321 329 337 349 344 347 353 344 346 342 348 352 350 354 354 16 35 50 61 69 73 79 84 89 98 104 100
228 248 272 231 290 109 35 333 299 310 299 310 315 325 328 318 328 330 332 346 356 343 352 350 348 346 350 357 4 358 0 14 34 52 61 69 74 75 76 81 86 89 96 100
196 182 254 274 191 252 256 189 78 347 337 324 328 321 328 330 333 335 351 356 355 344 359 349 351 353 354 0 9 8 15 34 52 53 59 75 80 78 74 73 78 85 94 98
289 177 228 259 278 288 265 208 329 329 325 327 334 338 342 342 345 349 351 2 351 343 1 354 356 360 355 3 13 14 30 50 65 69 73 77 78 80 76 70 70 79 80 95
200 232 238 263 302 263 280 313 316 315 313 313 318 339 355 358 351 346 351 358 347 348 5 0 4 7 3 13 22 26 42 59 68 75 80 81 83 84 85 85 79 87 97 103
Height
791 791 797 794 795 794 795 799 799 790 787 791 790 791 794 797 795 795 793 793 792 791 789 787 784 781 777 773 770 765 761 757 753 750 747 744 742 741 741 741 740 742 743 746
794 799 793 792 795 799 798 799 797 791 788 791 787 790 794 795 796 796 795 793 792 788 786 784 781 778 774 770 767 763 759 755 751 748 746 743 740 737 736 736 735 735 736 738
799 799 792 794 795 798 798 797 798 798 792 791 794 795 797 795 795 795 795 795 793 790 784 780 776 774 771 768 764 760 756 752 749 745 742 739 736 732 731 730 729 728 730 731
798 795 797 794 798 797 801 795 796 796 797 798 796 801 793 792 794 795 794 792 790 787 785 781 776 771 768 765 761 757 753 749 746 742 739 735 732 729 727 725 723 722 723 723
806 802 801 800 803 799 799 796 797 799 798 802 801 803 784 794 794 793 791 788 785 783 781 778 774 770 766 762 758 753 749 745 742 738 735 732 728 724 721 719 716 715 715 715
805 800 800 801 798 798 797 797 799 804 802 808 807 802 785 792 793 792 788 785 783 779 776 774 772 767 762 758 753 749 745 741 737 734 731 728 724 721 717 714 711 708 707 705
807 805 801 800 799 798 795 799 812 807 805 804 809 805 791 791 791 792 790 784 780 777 772 769 765 761 757 753 748 744 740 736 733 729 725 721 717 714 711 707 703 701 699 699
817 816 806 801 805 808 807 808 822 835 819 807 805 805 790 789 789 788 786 780 775 772 769 767 763 759 753 748 744 740 737 731 728 725 719 715 711 707 703 699 696 693 692 691
816 815 806 804 803 805 807 813 816 831 835 828 802 796 786 789 789 783 780 777 774 771 768 764 760 755 751 745 741 736 732 728 724 719 713 708 703 699 695 691 689 685 683 683
813 821 810 805 802 804 802 810 818 822 834 826 799 802 797 789 788 783 780 776 771 768 764 761 757 753 748 744 738 732 728 723 718 713 707 701 696 691 687 683 679 677 675 674
809 816 811 809 806 807 808 811 817 821 827 830 827 798 787 788 786 786 779 772 767 763 760 757 753 749 746 740 735 729 724 718 712 705 699 694 689 684 680 675 670 668 666 664
812 815 815 810 805 807 805 809 812 822 826 831 834 810 785 784 783 782 776 770 765 762 758 753 750 745 741 737 732 727 720 714 708 700 692 685 679 675 668 663 660 659 657 656
809 816 814 810 809 806 806 806 809 815 822 819 831 803 783 784 779 776 774 768 763 759 755 751 748 743 738 734 728 722 717 710 702 695 688 679 671 665 659 655 652 649 648 647
805 815 811 819 808 809 811 805 806 812 818 810 811 794 781 778 778 774 770 766 762 757 753 750 746 741 737 733 726 719 713 706 696 688 680 672 663 656 649 645 641 639 638 639
807 809 812 807 805 809 807 802 800 807 801 809 790 793 781 778 776 774 770 764 759 754 750 747 744 739 734 727 721 715 708 698 690 681 673 662 650 641 636 633 630 629 629 632
811 807 812 805 799 801 801 791 794 794 794 796 792 789 771 774 774 769 766 761 757 751 748 745 743 739 732 725 718 711 702 692 683 674 665 654 644 635 626 621 623 624 626 630
806 807 812 802 798 796 793 782 786 784 784 785 789 778 772 773 770 768 763 759 755 750 748 744 742 738 730 723 716 707 698 688 679 671 661 652 642 635 627 624 624 628 631 634
804 808 809 802 801 804 779 777 777 782 781 778 778 775 770 770 768 767 758 756 753 750 748 745 742 735 729 722 714 705 695 686 678 669 660 651 644 639 634 632 634 638 638 643
799 802 803 802 796 785 778 780 782 782 781 773 776 771 769 765 767 755 753 756 753 752 749 746 742 735 728 721 712 703 694 686 678 669 660 653 648 644 643 641 644 647 649 654
802 799 803 804 801 802 782 780 779 779 782 776 777 772 769 767 763 754 750 753 750 750 748 744 739 733 727 720 711 703 695 687 679 672 664 659 653 651 651 652 652 656 658 664
802 804 802 799 798 786 779 779 780 789 782 778 776 772 768 767 762 755 751 750 751 749 745 743 737 733 727 719 712 704 697 690 683 676 670 666 663 661 661 663 663 665 668 674
789 793 796 798 800 800 783 781 784 784 778 777 774 770 768 764 758 753 749 750 751 748 745 743 737 731 726 721 714 707 700 694 688 682 677 674 673 673 673 675 678 679 677 682
790 785 782 786 779 782 785 786 785 785 782 777 775 770 768 763 757 752 749 751 752 750 747 745 738 732 728 723 717 711 705 698 695 691 686 683 682 683 685 688 692 690 694 696
789 791 785 787 780 780 782 783 783 783 781 777 774 771 767 763 756 752 751 753 753 750 749 745 740 734 729 725 720 715 710 705 701 698 695 694 692 694 695 699 703 704 708 713
788 789 787 784 780 778 775 778 779 778 776 774 772 770 766 762 756 755 755 756 756 752 751 747 742 738 733 728 723 719 715 711 708 707 705 704 705 702 705 710 717 717 723 725
785 781 782 778 777 779 776 775 774 774 772 770 769 767 765 762 759 758 757 759 757 753 753 748 745 741 737 732 728 724 721 718 716 715 714 714 714 714 720 724 731 737 740 743